Regional Weather Roundup
Issued by NWS

Home | Current Version | Previous Version | Graphics & Text | Print | Product List | Glossary On
Versions: 1 2 3 4 5 6 7 8 9 10 11 12 13 14 15 16 17 18 19 20 21 22 23 24 25 26 27 28 29 30 31 32 33 34 35 36 37 38 39 40 41 42 43 44 45 46 47 48 49 50
000
ASUS45 KCYS 221510
RWRWY

WYOMING REGIONAL WEATHER ROUNDUP
NATIONAL WEATHER SERVICE CHEYENNE WY
900 AM MDT FRI MAY 22 2015

NOTE:  "FAIR" INDICATES FEW OR NO CLOUDS BELOW 12,000 FEET
WITH NO SIGNIFICANT WEATHER AND/OR OBSTRUCTIONS TO VISIBILITY.

WYZ001-221600-
YELLOWSTONE NATIONAL PARK

CITY           SKY/WX    TMP DP  RH WIND       PRES   REMARKS
LK YELLOWSTONE   N/A     42  34  73 SE3       30.05F
W YELLOWSTONE  NOT AVBL

$$
WYZ002>013-054>058-071-098>099-221600-
NORTHERN WYOMING

CITY           SKY/WX    TMP DP  RH WIND       PRES   REMARKS
JACKSON        CLOUDY    48  45  87 CALM      30.00F
CODY           FAIR      52  45  76 NE6       29.98R
GREYBULL       FAIR      55  45  68 CALM      29.94S
WORLAND        CLOUDY    54  46  74 CALM      29.94S
SHERIDAN       FAIR      51  44  77 CALM      29.97S
BUFFALO          N/A     53  46  77 SE14      29.99S
GILLETTE       CLOUDY    53  45  74 SE13      30.02S
HULETT         CLOUDY    55  43  62 E8        30.06F
NEWCASTLE      CLOUDY    52  41  66 SE21      30.07S

$$
WYZ014>020-022>026-101>103-221600-
CENTRAL WYOMING

CITY           SKY/WX    TMP DP  RH WIND       PRES   REMARKS
BIG PINEY      CLOUDY    49  39  68 CALM      30.02S
PINEDALE       FAIR      46  41  81 NW6       30.03S
DUBOIS         FAIR      45  37  76 CALM      30.01F
LANDER         CLOUDY    50  43  77 NW5       29.98S
RIVERTON       CLOUDY    48  44  86 N6        29.99S
CASPER         CLOUDY    49  44  83 E3        29.99S
DOUGLAS        CLOUDY    49  44  83 SE16      30.03S

$$
WYZ021-027>030-104>119-221600-
SOUTHERN WYOMING

CITY           SKY/WX    TMP DP  RH WIND       PRES   REMARKS
EVANSTON       PTSUNNY   44  40  85 CALM      30.00S
KEMMERER       PTSUNNY   45  39  81 CALM      30.01F
FORT BRIDGER   CLOUDY    43  43 100 N6        30.03S FOG
ROCK SPRINGS   CLOUDY    48  41  76 E7        30.00S
DIXON          DRIZZLE   46  43  91 SW8       30.04R
RAWLINS        CLOUDY    46  41  82 CALM      30.00F
SARATOGA       CLOUDY    45  41  87 S6        30.02S
LARAMIE        CLOUDY    42  39  89 SE14      30.02R
CHEYENNE       LGT RAIN  42  41  96 SE15      30.04S FOG
TORRINGTON     CLOUDY    48  45  89 MISG      30.05S
PINE BLUFFS    RAIN      45  43  93 SE13      30.06S

$$


USA.gov is the U.S. government's official web portal to all federal, state and local government web resources and services.